Regional Weather Roundup
Issued by NWS

Home | Current Version | Previous Version | Text Only | Print | Product List | Glossary On
Versions: 1 2 3 4 5 6 7 8 9 10 11 12 13 14 15 16 17 18 19 20 21 22 23 24 25 26 27 28
000
ASCA42 TJSJ 061410
RWRPR
PUERTO RICO/U.S. VIRGIN ISLANDS HOURLY WEATHER ROUNDUP
NATIONAL WEATHER SERVICE SAN JUAN PR
1000 AM AST FRI MAY 06 2016

PRZ001-004-061500-
PUERTO RICO

CITY           SKY/WX    TMP DP  RH WIND       PRES   REMARKS
SAN JUAN LMM   MOSUNNY   88  73  62 SE12G18   29.93R HX  96
AGUADILLA      MOSUNNY   84  72  65 CALM      29.93S
CEIBA          MOSUNNY   84  75  74 S17       29.97R HX  92
$$

PRZ006-007-061500-
U.S. VIRGIN ISLANDS

CITY           SKY/WX    TMP DP  RH WIND       PRES   REMARKS
CHARLOTTE AMA  SUNNY     84  77  79 SE15      29.95R HX  94
CHRISTIANSTED  MOSUNNY   86  75  70 SE14      29.96S HX  95
$$

HOURLY WEATHER ROUNDUP FOR THE NEWS MEDIA

CITY           SKY/WX    TMP DP  RH WIND       PRES   REMARKS
ORLANDO        SUNNY     68  44  42 N8        29.91R
NEW YORK       LGT RAIN  49  46  90 E12       29.71R
NEWARK         HVY RAIN  50  48  93 NE12      29.70R FOG
CHICAGO        PTSUNNY   58  42  55 W8        29.99S
HARTFORD       CLOUDY    50  44  80 NE14G22   29.80R
BOSTON         CLOUDY    53  44  71 NE14      29.82R
DALLAS         PTSUNNY   71  50  47 E7        30.10R
PHILADELPHIA   LGT RAIN  51  47  86 NE13G23   29.68
LOS ANGELES    PTSUNNY   59  53  80 W5        29.86R
WASHINGTON DC  LGT RAIN  53  50  89 NW9       29.70R



USA.gov is the U.S. government's official web portal to all federal, state and local government web resources and services.